Tracking 32139 objects as of 17-Nov-2025
HD Live streaming from Space Station
objects crossing your sky now

STARLINK-34823

Track STARLINK-34823 now!
10-day predictions
STARLINK-34823 is classified as:


NORAD ID: 65355
Int'l Code: 2025-190E
Perigee: 481.6 km
Apogee: 482.8 km
Inclination: 53.2 °
Period: 94.1 minutes
Semi major axis: 6853 km
RCS: Unknown
Launch date: August 28, 2025
Source: United States (US)
Launch site: AIR FORCE EASTERN TEST RANGE (AFETR)
Your satellite tracking list
Your tracking list is empty




NASA's NSSDC Master Catalog

Two Line Element Set (TLE):
1 65355U 25190E   25320.28456385  .00070177  00000-0  23558-2 0  9991
2 65355  53.1609 334.8458 0000896  59.7493 300.3596 15.30247876 12399
Source of the keplerian elements: AFSPC